Change the Weather History Date:

Thursday, March 7, 2013

  Actual Average Record
Temperature  
Mean Temperature 34 °F -  
Max Temperature 37 °F 46 °F 73 °F (1983)
Min Temperature 30 °F 24 °F -3 °F (1960)
Degree Days  
Heating Degree Days 32    
Moisture  
Dew Point 31 °F    
Average Humidity 89    
Maximum Humidity 100    
Minimum Humidity 70    
Precipitation  
Precipitation 0.05 in - - ()
Sea Level Pressure  
Sea Level Pressure 30.15 in    
Wind  
Wind Speed 3 mph (NW)    
Max Wind Speed 14 mph    
Max Gust Speed 23 mph    
Visibility 9 miles    
Events      
Averages and records for this station are not official NWS values.
T = Trace of Precipitation, MM = Missing Value Source: NWS Daily Summary

Daily Weather History Graph

Daily Weather History Graph

Search for Another Location

Airport or City:

Trip Planner

Search our weather history database for the weather conditions in past years. The results will help you decide how hot, cold, wet, or windy it might be!

Date:

Astronomy

Mar. 07, 2013 Rise Set
Actual Time 6:40 AM EST 6:14 PM EST
Civil Twilight 6:13 AM EST 6:42 PM EST
Nautical Twilight 5:41 AM EST 7:13 PM EST
Astronomical Twilight 5:09 AM EST 7:45 PM EST
Moon 3:40 AM EST (3/7) 1:59 PM EST (3/7)
Length of Visible Light 12h 28m
Length of Day
11h 34m
Waning Crescent, 20% of the Moon is Illuminated
Mar 7
Waning Crescent
Mar 11
New
Mar 19
First Quarter
Mar 27
Full
Apr 3
Last Quarter

Hourly Weather History & Observations

Time (EST) Temp. Windchill Dew Point Humidity Pressure Visibility Wind Dir Wind Speed Gust Speed Precip Events Conditions
12:15 AM 35.6 °F - 26.6 °F 70% 30.07 in 10.0 mi Calm Calm - N/A   Unknown
12:35 AM 33.8 °F - 28.4 °F 81% 30.07 in 10.0 mi Calm Calm - N/A   Unknown
12:55 AM 33.8 °F - 26.6 °F 75% 30.07 in 10.0 mi Calm Calm - N/A   Unknown
1:15 AM 33.8 °F - 28.4 °F 81% 30.07 in 10.0 mi Calm Calm - N/A   Unknown
1:35 AM 33.8 °F - 28.4 °F 81% 30.08 in 10.0 mi Calm Calm - N/A   Unknown
1:55 AM 33.8 °F - 28.4 °F 81% 30.08 in 10.0 mi Calm Calm - N/A   Unknown
2:15 AM 33.8 °F - 28.4 °F 81% 30.08 in 10.0 mi Calm Calm - N/A   Unknown
2:35 AM 33.8 °F - 28.4 °F 81% 30.07 in 10.0 mi Calm Calm - N/A   Unknown
2:55 AM 33.8 °F 30.8 °F 28.4 °F 81% 30.08 in 10.0 mi NNW 3.5 mph - N/A   Unknown
3:15 AM 33.8 °F - 28.4 °F 81% 30.07 in 10.0 mi Calm Calm - N/A   Unknown
3:35 AM 33.8 °F - 28.4 °F 81% 30.07 in 10.0 mi Calm Calm - N/A   Unknown
3:55 AM 33.8 °F - 28.4 °F 81% 30.08 in 10.0 mi Calm Calm - N/A   Unknown
4:15 AM 33.8 °F - 28.4 °F 81% 30.09 in 10.0 mi Calm Calm - N/A   Unknown
4:35 AM 33.8 °F - 28.4 °F 81% 30.09 in 10.0 mi Calm Calm - N/A   Unknown
4:55 AM 33.8 °F - 28.4 °F 81% 30.09 in 10.0 mi Calm Calm - N/A   Unknown
5:15 AM 33.8 °F - 28.4 °F 81% 30.10 in 10.0 mi Calm Calm - N/A   Unknown
5:35 AM 32.0 °F - 28.4 °F 87% 30.10 in 10.0 mi Calm Calm - N/A   Unknown
5:55 AM 32.0 °F 28.7 °F 30.2 °F 93% 30.10 in 10.0 mi NW 3.5 mph - N/A   Unknown
6:15 AM 32.0 °F - 30.2 °F 93% 30.10 in 10.0 mi Calm Calm - N/A   Unknown
6:35 AM 32.0 °F - 30.2 °F 93% 30.11 in 10.0 mi Calm Calm - N/A   Unknown
6:55 AM 32.0 °F - 30.2 °F 93% 30.12 in 10.0 mi Calm Calm - N/A   Unknown
7:15 AM 32.0 °F 28.7 °F 30.2 °F 93% 30.12 in 10.0 mi WNW 3.5 mph - N/A   Unknown
7:35 AM 32.0 °F - 30.2 °F 93% 30.14 in 10.0 mi Calm Calm - N/A   Unknown
7:55 AM 32.0 °F 28.7 °F 30.2 °F 93% 30.14 in 10.0 mi NW 3.5 mph - N/A   Unknown
8:15 AM 33.8 °F 27.7 °F 30.2 °F 87% 30.15 in 10.0 mi WNW 6.9 mph - N/A   Unknown
8:35 AM 33.8 °F 30.8 °F 30.2 °F 87% 30.16 in 10.0 mi NW 3.5 mph - N/A   Unknown
8:55 AM 33.8 °F 29.6 °F 32.0 °F 93% 30.16 in 10.0 mi NW 4.6 mph - N/A   Unknown
9:15 AM 33.8 °F 28.6 °F 32.0 °F 93% 30.16 in 10.0 mi WNW 5.8 mph - N/A   Unknown
9:35 AM 33.8 °F 28.6 °F 32.0 °F 93% 30.16 in 10.0 mi NW 5.8 mph - N/A   Unknown
9:55 AM 35.6 °F 29.2 °F 32.0 °F 87% 30.17 in 10.0 mi NNW 8.1 mph - N/A   Unknown
10:15 AM 35.6 °F 29.9 °F 32.0 °F 87% 30.17 in 10.0 mi NW 6.9 mph - N/A   Unknown
10:35 AM 35.6 °F 29.2 °F 32.0 °F 87% 30.17 in 10.0 mi NW 8.1 mph - N/A   Unknown
10:55 AM 37.4 °F 30.8 °F 32.0 °F 81% 30.17 in 10.0 mi NW 9.2 mph - N/A   Unknown
11:15 AM 37.4 °F 30.8 °F 32.0 °F 81% 30.17 in 10.0 mi NW 9.2 mph - N/A   Unknown
11:35 AM 37.4 °F 31.4 °F 32.0 °F 81% 30.17 in 10.0 mi NW 8.1 mph 16.1 mph N/A   Unknown
11:55 AM 37.4 °F 30.8 °F 30.2 °F 75% 30.17 in 10.0 mi NW 9.2 mph 16.1 mph N/A   Unknown
12:15 PM 37.4 °F 30.8 °F 30.2 °F 75% 30.17 in 10.0 mi NW 9.2 mph - N/A   Unknown
12:35 PM 37.4 °F 30.3 °F 30.2 °F 75% 30.17 in 10.0 mi NW 10.4 mph - N/A   Unknown
12:55 PM 37.4 °F 30.3 °F 28.4 °F 70% 30.17 in 10.0 mi NW 10.4 mph - N/A   Unknown
1:15 PM 37.4 °F 30.3 °F 30.2 °F 75% 30.17 in 7.0 mi NNW 10.4 mph 18.4 mph N/A   Unknown
1:35 PM 35.6 °F 31.7 °F 33.8 °F 93% 30.17 in 2.0 mi NNW 4.6 mph - N/A   Unknown
1:55 PM 35.6 °F 31.7 °F 35.6 °F 100% 30.17 in 7.0 mi WNW 4.6 mph - N/A   Unknown
2:15 PM 37.4 °F 31.4 °F 33.8 °F 87% 30.16 in 10.0 mi WNW 8.1 mph - N/A   Unknown
2:35 PM 37.4 °F 32.1 °F 33.8 °F 87% 30.16 in 7.0 mi WNW 6.9 mph - N/A   Unknown
2:55 PM 37.4 °F 32.1 °F 33.8 °F 87% 30.16 in 10.0 mi NW 6.9 mph - N/A   Unknown
3:15 PM 37.4 °F 28.9 °F 33.8 °F 87% 30.17 in 3.0 mi NW 13.8 mph 23.0 mph N/A   Unknown
3:35 PM 33.8 °F 27.0 °F 33.8 °F 100% 30.17 in 0.5 mi NW 8.1 mph 18.4 mph N/A   Unknown
3:55 PM 33.8 °F - 33.8 °F 100% 30.17 in 10.0 mi Calm Calm - N/A   Unknown
4:15 PM 37.4 °F - 35.6 °F 93% 30.17 in 10.0 mi Calm Calm - N/A   Unknown
4:35 PM 33.8 °F - 33.8 °F 100% 30.17 in 1.8 mi Calm Calm - N/A   Unknown
4:55 PM 33.8 °F 28.6 °F 33.8 °F 100% 30.19 in 1.5 mi NNW 5.8 mph - 0.04 in   Unknown
5:15 PM 33.8 °F - 33.8 °F 100% 30.19 in 10.0 mi Calm Calm - 0.01 in   Unknown
5:35 PM 33.8 °F 30.8 °F 33.8 °F 100% 30.19 in 10.0 mi NW 3.5 mph - 0.01 in   Unknown
5:55 PM 33.8 °F - 33.8 °F 100% 30.20 in 10.0 mi Calm Calm - 0.01 in   Unknown
6:15 PM 33.8 °F 30.8 °F 33.8 °F 100% 30.21 in 10.0 mi NNW 3.5 mph - N/A   Unknown
6:35 PM 33.8 °F 28.6 °F 33.8 °F 100% 30.21 in 10.0 mi North 5.8 mph - N/A   Unknown
6:55 PM 33.8 °F 29.6 °F 33.8 °F 100% 30.22 in 10.0 mi North 4.6 mph - N/A   Unknown
8:35 PM 32.0 °F - 32.0 °F 100% 30.23 in 10.0 mi Calm Calm - N/A   Unknown
8:55 PM 30.2 °F - 30.2 °F 100% 30.23 in 10.0 mi Calm Calm - N/A   Unknown
9:15 PM 30.2 °F - 30.2 °F 100% 30.23 in 10.0 mi Calm Calm - N/A   Unknown
9:35 PM 30.2 °F - 30.2 °F 100% 30.23 in 10.0 mi Calm Calm - N/A   Unknown
9:55 PM 30.2 °F 25.4 °F 30.2 °F 100% 30.23 in 10.0 mi NW 4.6 mph - N/A   Unknown
10:15 PM 30.2 °F 22.6 °F 30.2 °F 100% 30.23 in 10.0 mi NNW 8.1 mph - N/A   Unknown
10:35 PM 30.2 °F 23.4 °F 30.2 °F 100% 30.23 in 10.0 mi NW 6.9 mph - N/A   Unknown
10:55 PM 30.2 °F 24.3 °F 30.2 °F 100% 30.23 in 10.0 mi NNW 5.8 mph - N/A   Unknown
11:15 PM 30.2 °F 23.4 °F 30.2 °F 100% 30.23 in 10.0 mi NW 6.9 mph - N/A   Unknown
11:35 PM 32.0 °F 26.4 °F 30.2 °F 93% 30.23 in 10.0 mi NNW 5.8 mph - N/A   Unknown
11:55 PM 30.2 °F 24.3 °F 30.2 °F 100% 30.23 in 10.0 mi NW 5.8 mph - N/A   Unknown